This is the latest recevied weather packets stored in our database for station/object K3CHZ. If no packets are shown the sender has not sent any weather packets the latest 10 day(s).
| Time | Temp. | Humidity | Pressure | Rain* | Wind** | Luminosity | Snow |
|---|---|---|---|---|---|---|---|
| 1777735341 | 12.22° C | 56% | 1014.7 hPa | 0 mm | - | - | - |
| 1777735042 | 12.22° C | 52% | 1014.8 hPa | 0 mm | - | - | - |
| 1777734741 | 12.22° C | 55% | 1014.5 hPa | 0 mm | - | - | - |
| 1777734441 | 12.22° C | 60% | 1014.5 hPa | 0 mm | - | - | - |
| 1777734141 | 11.67° C | 57% | 1014.5 hPa | 0 mm | - | - | - |
| 1777733841 | 11.67° C | 58% | 1014.4 hPa | 0 mm | - | - | - |
| 1777733542 | 11.67° C | 57% | 1014.4 hPa | 0 mm | - | - | - |
| 1777733243 | 11.11° C | 60% | 1014.3 hPa | 0 mm | - | - | - |
| 1777732941 | 11.11° C | 60% | 1014.4 hPa | 0 mm | - | - | - |
| 1777732641 | 11.11° C | 59% | 1014.2 hPa | 0 mm | - | - | - |
| 1777732341 | 11.11° C | 60% | 1014.1 hPa | 0 mm | - | - | - |
| 1777731735 | 11.11° C | 63% | 1014.1 hPa | 0 mm | - | - | - |
| 1777731437 | 11.11° C | 64% | 1014.1 hPa | 0 mm | - | - | - |
| 1777730836 | 10.56° C | 64% | 1014.2 hPa | 0 mm | - | - | - |
| 1777730535 | 10.56° C | 67% | 1014 hPa | 0 mm | - | - | - |
| 1777730235 | 10° C | 66% | 1014.1 hPa | 0 mm | - | - | - |
| 1777729935 | 10° C | 65% | 1014.3 hPa | 0 mm | - | - | - |
| 1777729635 | 10° C | 67% | 1014.2 hPa | 0 mm | - | - | - |
| 1777729335 | 9.44° C | 66% | 1014.4 hPa | 0 mm | - | - | - |
| 1777729036 | 9.44° C | 69% | 1014.3 hPa | 0 mm | - | - | - |
| 1777728735 | 9.44° C | 70% | 1014.2 hPa | 0 mm | - | - | - |
| 1777728436 | 8.89° C | 68% | 1014.3 hPa | 0 mm | - | - | - |
| 1777728139 | 8.89° C | 70% | 1014.5 hPa | 0 mm | - | - | - |
| 1777727840 | 8.89° C | 69% | 1014.5 hPa | 0 mm | - | - | - |
| 1777727538 | 8.89° C | 68% | 1014.4 hPa | 0 mm | - | - | - |
* Rain latest hour (hover to see other rain measurements)
** Current wind speed in m/s (hover to see current wind gust speed)